Retour au catalogue

STARLINK-35600

ActifCommunicationsVLEO
NORAD 66510·PAYLOAD·🇺🇸 United States

Lancé Nov 15, 2025 depuis Cape Canaveral Space Force Station

Loading…

Prochains Passages (prochaines 24 heures)

TLE

FraisSource: CelesTrak SupGP

Époque: Sep 15, 2026, 04:04 UTC

1 66510C 25263AB  26258.16993056  .00051014  00000+0  18475-2 0  2583
2 66510  43.0012   0.9547 0001342 259.5723  93.3827 15.27557498    14

Suivez STARLINK-35600 en temps réel avec AllMySat

Download on the App Store